START_TIME,STEP,MOV.,M35,t_acc.,PL05,t_acc.,PL06,t_acc.,PL07,t_acc.
1979-07-15 03:00:24.140 ,1,0,0.,4.8,3.,4.8,3.,4.8,3.,4.8
1979-07-15 03:00:28.940 ,1,0,0.,4.8,1.,4.8,1.,4.8,1.,4.8
1979-07-15 03:00:33.740 ,1,0,0.,4.8,7.,4.8,1.,4.8,2.,4.8
1979-07-15 03:00:38.540 ,1,0,0.,4.8,3.,4.8,1.,4.8,2.,4.8
1979-07-15 03:00:43.340 ,1,0,0.,4.8,7.,4.8,1.,4.8,1.,4.8
1979-07-15 03:00:48.140 ,2,0,0.,4.8,6.,4.8,1.,4.8,1.,4.8
1979-07-15 03:00:52.940 ,2,0,0.,4.8,2.,4.8,0.,4.8,0.,4.8
1979-07-15 03:00:57.740 ,2,0,0.,4.8,5.,4.8,1.,4.8,4.,4.8
1979-07-15 03:01:02.540 ,2,0,0.,4.8,3.,4.8,1.,4.8,3.,4.8
1979-07-15 03:01:07.340 ,2,0,0.,4.8,4.,4.8,1.,4.8,1.,4.8
1979-07-15 03:01:12.140 ,2,0,0.,4.8,8.,4.8,2.,4.8,2.,4.8
1979-07-15 03:01:16.940 ,2,0,0.,4.8,8.,4.8,2.,4.8,4.,4.8
1979-07-15 03:01:21.740 ,2,0,0.,4.8,0.,4.8,1.,4.8,2.,4.8
1979-07-15 03:01:26.540 ,2,0,0.,4.8,9.,4.8,4.,4.8,3.,4.8
1979-07-15 03:01:31.340 ,2,0,0.,4.8,6.,4.8,3.,4.8,3.,4.8
1979-07-15 03:01:36.140 ,3,0,0.,4.8,4.,4.8,3.,4.8,2.,4.8
1979-07-15 03:01:40.940 ,3,0,0.,4.8,5.,4.8,3.,4.8,2.,4.8
1979-07-15 03:01:45.740 ,3,0,0.,4.8,14.,4.8,1.,4.8,5.,4.8
1979-07-15 03:01:50.540 ,3,0,0.,4.8,21.,4.8,1.,4.8,4.,4.8
1979-07-15 03:01:55.340 ,3,0,0.,4.8,16.,4.8,4.,4.8,4.,4.8
1979-07-15 03:02:00.140 ,3,0,0.,4.8,21.,4.8,4.,4.8,3.,4.8
1979-07-15 03:02:04.940 ,3,0,0.,4.8,24.,4.8,3.,4.8,3.,4.8
1979-07-15 03:02:09.740 ,3,0,0.,4.8,22.,4.8,6.,4.8,2.,4.8
1979-07-15 03:02:14.540 ,3,0,0.,4.8,26.,4.8,0.,4.8,5.,4.8
1979-07-15 03:02:19.340 ,3,0,0.,4.8,24.,4.8,4.,4.8,2.,4.8
1979-07-15 03:02:24.140 ,4,0,0.,4.8,18.,4.8,7.,4.8,2.,4.8
1979-07-15 03:02:28.940 ,4,0,0.,4.8,28.,4.8,5.,4.8,1.,4.8
1979-07-15 03:02:33.740 ,4,0,0.,4.8,23.,4.8,4.,4.8,2.,4.8
1979-07-15 03:02:38.540 ,4,0,0.,4.8,34.,4.8,4.,4.8,0.,4.8
1979-07-15 03:02:43.340 ,4,0,0.,4.8,28.,4.8,6.,4.8,10.,4.8
1979-07-15 03:02:48.140 ,4,0,0.,4.8,25.,4.8,4.,4.8,2.,4.8
1979-07-15 03:02:52.940 ,4,0,0.,4.8,34.,4.8,3.,4.8,2.,4.8
1979-07-15 03:02:57.740 ,4,0,0.,4.8,28.,4.8,6.,4.8,5.,4.8
1979-07-15 03:03:02.540 ,4,0,0.,4.8,27.,4.8,6.,4.8,2.,4.8
1979-07-15 03:03:07.340 ,4,0,0.,4.8,33.,4.8,2.,4.8,1.,4.8
1979-07-15 03:03:12.140 ,5,0,0.,4.8,31.,4.8,7.,4.8,7.,4.8
1979-07-15 03:03:16.940 ,5,0,0.,4.8,34.,4.8,5.,4.8,2.,4.8
1979-07-15 03:03:21.740 ,5,0,0.,4.8,37.,4.8,4.,4.8,4.,4.8
1979-07-15 03:03:26.540 ,5,0,0.,4.8,33.,4.8,5.,4.8,4.,4.8
1979-07-15 03:03:31.340 ,5,0,1.,4.8,38.,4.8,3.,4.8,2.,4.8
1979-07-15 03:03:36.140 ,5,0,0.,4.8,49.,4.8,4.,4.8,4.,4.8
1979-07-15 03:03:40.940 ,5,0,0.,4.8,36.,4.8,3.,4.8,5.,4.8
1979-07-15 03:03:45.740 ,5,0,0.,4.8,40.,4.8,3.,4.8,7.,4.8
1979-07-15 03:03:50.540 ,5,0,0.,4.8,38.,4.8,7.,4.8,3.,4.8
1979-07-15 03:03:55.340 ,5,0,0.,4.8,36.,4.8,3.,4.8,3.,4.8
1979-07-15 03:04:00.140 ,6,0,0.,4.8,39.,4.8,2.,4.8,4.,4.8
1979-07-15 03:04:04.940 ,6,0,0.,4.8,30.,4.8,6.,4.8,2.,4.8
1979-07-15 03:04:09.740 ,6,0,0.,4.8,35.,4.8,2.,4.8,1.,4.8
1979-07-15 03:04:14.540 ,6,0,0.,4.8,30.,4.8,5.,4.8,1.,4.8
1979-07-15 03:04:19.340 ,6,0,0.,4.8,38.,4.8,3.,4.8,3.,4.8
1979-07-15 03:04:24.140 ,6,0,0.,4.8,38.,4.8,4.,4.8,3.,4.8
1979-07-15 03:04:28.940 ,6,0,0.,4.8,25.,4.8,8.,4.8,2.,4.8
1979-07-15 03:04:33.740 ,6,0,0.,4.8,30.,4.8,5.,4.8,5.,4.8
1979-07-15 03:04:38.540 ,6,0,0.,4.8,31.,4.8,4.,4.8,3.,4.8
1979-07-15 03:04:43.340 ,6,0,0.,4.8,31.,4.8,4.,4.8,3.,4.8
1979-07-15 03:04:48.140 ,7,0,0.,4.8,32.,4.8,6.,4.8,4.,4.8
1979-07-15 03:04:52.940 ,7,0,0.,4.8,33.,4.8,4.,4.8,5.,4.8
1979-07-15 03:04:57.740 ,7,0,0.,4.8,0.,4.8,0.,4.8,0.,4.8
1979-07-15 03:05:02.540 ,7,0,0.,4.8,2.,4.8,0.,4.8,0.,4.8
1979-07-15 03:05:07.340 ,7,0,0.,4.8,0.,4.8,1.,4.8,0.,4.8
1979-07-15 03:05:12.140 ,7,0,0.,4.8,1.,4.8,0.,4.8,0.,4.8
1979-07-15 03:05:16.940 ,7,0,0.,4.8,0.,4.8,0.,4.8,0.,4.8
1979-07-15 03:05:21.740 ,7,0,0.,4.8,2.,4.8,0.,4.8,1.,4.8
1979-07-15 03:05:26.540 ,7,0,0.,4.8,0.,4.8,1.,4.8,0.,4.8
1979-07-15 03:05:31.340 ,7,0,0.,4.8,0.,4.8,0.,4.8,0.,4.8
1979-07-15 03:05:36.140 ,7,0,0.,4.8,2.,4.8,0.,4.8,0.,4.8
1979-07-15 03:05:40.940 ,7,0,0.,4.8,1.,4.8,0.,4.8,0.,4.8
1979-07-15 03:05:45.740 ,7,0,0.,4.8,2.,4.8,1.,4.8,0.,4.8
1979-07-15 03:05:50.540 ,7,0,0.,4.8,0.,4.8,0.,4.8,0.,4.8
1979-07-15 03:05:55.340 ,7,0,0.,4.8,0.,4.8,0.,4.8,0.,4.8
1979-07-15 03:06:00.140 ,7,0,0.,4.8,0.,4.8,0.,4.8,0.,4.8
1979-07-15 03:06:04.940 ,7,0,0.,4.8,0.,4.8,0.,4.8,0.,4.8
1979-07-15 03:06:09.740 ,7,0,0.,4.8,0.,4.8,0.,4.8,0.,4.8
1979-07-15 03:06:14.540 ,7,0,0.,4.8,0.,4.8,0.,4.8,0.,4.8
1979-07-15 03:06:19.340 ,7,0,0.,4.8,0.,4.8,0.,4.8,1.,4.8
1979-07-15 03:06:24.140 ,6,0,0.,4.8,1.,4.8,0.,4.8,0.,4.8
1979-07-15 03:06:28.940 ,6,0,0.,4.8,1.,4.8,0.,4.8,0.,4.8
1979-07-15 03:06:33.740 ,6,0,0.,4.8,26.,4.8,4.,4.8,4.,4.8
1979-07-15 03:06:38.540 ,6,0,0.,4.8,23.,4.8,3.,4.8,1.,4.8
1979-07-15 03:06:43.340 ,6,0,0.,4.8,15.,4.8,4.,4.8,5.,4.8
1979-07-15 03:06:48.140 ,6,0,0.,4.8,16.,4.8,7.,4.8,5.,4.8
1979-07-15 03:06:52.940 ,6,0,0.,4.8,24.,4.8,4.,4.8,6.,4.8
1979-07-15 03:06:57.740 ,6,0,0.,4.8,30.,4.8,3.,4.8,4.,4.8
1979-07-15 03:07:02.540 ,6,0,0.,4.8,26.,4.8,5.,4.8,5.,4.8
1979-07-15 03:07:07.340 ,6,0,0.,4.8,20.,4.8,2.,4.8,5.,4.8
1979-07-15 03:07:12.140 ,5,0,0.,4.8,18.,4.8,6.,4.8,0.,4.8
1979-07-15 03:07:16.940 ,5,0,0.,4.8,21.,4.8,5.,4.8,4.,4.8
1979-07-15 03:07:21.740 ,5,0,0.,4.8,32.,4.8,5.,4.8,2.,4.8
1979-07-15 03:07:26.540 ,5,0,0.,4.8,39.,4.8,5.,4.8,5.,4.8
1979-07-15 03:07:31.340 ,5,0,0.,4.8,26.,4.8,6.,4.8,3.,4.8
1979-07-15 03:07:36.140 ,5,0,0.,4.8,27.,4.8,7.,4.8,2.,4.8
1979-07-15 03:07:40.940 ,5,0,0.,4.8,28.,4.8,3.,4.8,3.,4.8
1979-07-15 03:07:45.740 ,5,0,0.,4.8,25.,4.8,8.,4.8,3.,4.8
1979-07-15 03:07:50.540 ,5,0,0.,4.8,25.,4.8,4.,4.8,5.,4.8
1979-07-15 03:07:55.340 ,5,0,0.,4.8,33.,4.8,2.,4.8,4.,4.8
1979-07-15 03:08:00.140 ,4,0,0.,4.8,29.,4.8,5.,4.8,4.,4.8
1979-07-15 03:08:04.940 ,4,0,0.,4.8,18.,4.8,7.,4.8,6.,4.8
1979-07-15 03:08:09.740 ,4,0,0.,4.8,21.,4.8,7.,4.8,1.,4.8
1979-07-15 03:08:14.540 ,4,0,0.,4.8,26.,4.8,5.,4.8,8.,4.8
1979-07-15 03:08:19.340 ,4,0,0.,4.8,21.,4.8,4.,4.8,3.,4.8
1979-07-15 03:08:24.140 ,4,0,0.,4.8,29.,4.8,5.,4.8,3.,4.8
1979-07-15 03:08:28.940 ,4,0,0.,4.8,29.,4.8,3.,4.8,3.,4.8
1979-07-15 03:08:33.740 ,4,0,0.,4.8,24.,4.8,6.,4.8,1.,4.8
1979-07-15 03:08:38.540 ,4,0,0.,4.8,20.,4.8,0.,4.8,4.,4.8
1979-07-15 03:08:43.340 ,4,0,0.,4.8,18.,4.8,6.,4.8,6.,4.8
1979-07-15 03:08:48.140 ,3,0,0.,4.8,20.,4.8,3.,4.8,4.,4.8
1979-07-15 03:08:52.940 ,3,0,0.,4.8,19.,4.8,4.,4.8,5.,4.8
1979-07-15 03:08:57.740 ,3,0,0.,4.8,11.,4.8,5.,4.8,0.,4.8
1979-07-15 03:09:02.540 ,3,0,0.,4.8,15.,4.8,3.,4.8,4.,4.8
1979-07-15 03:09:07.340 ,3,0,0.,4.8,9.,4.8,3.,4.8,2.,4.8
1979-07-15 03:09:12.140 ,3,0,0.,4.8,16.,4.8,1.,4.8,5.,4.8
1979-07-15 03:09:16.940 ,3,0,0.,4.8,16.,4.8,3.,4.8,1.,4.8
1979-07-15 03:09:21.740 ,3,0,0.,4.8,15.,4.8,6.,4.8,0.,4.8
1979-07-15 03:09:26.540 ,3,0,0.,4.8,14.,4.8,5.,4.8,4.,4.8
1979-07-15 03:09:31.340 ,3,0,0.,4.8,7.,4.8,4.,4.8,3.,4.8
1979-07-15 03:09:36.140 ,2,0,0.,4.8,14.,4.8,3.,4.8,2.,4.8
1979-07-15 03:09:40.940 ,2,0,0.,4.8,16.,4.8,1.,4.8,2.,4.8
1979-07-15 03:09:45.740 ,2,0,0.,4.8,16.,4.8,1.,4.8,3.,4.8
1979-07-15 03:09:50.540 ,2,0,0.,4.8,11.,4.8,1.,4.8,2.,4.8
1979-07-15 03:09:55.340 ,2,0,0.,4.8,11.,4.8,0.,4.8,1.,4.8
1979-07-15 03:10:00.140 ,2,0,0.,4.8,6.,4.8,4.,4.8,1.,4.8
1979-07-15 03:10:04.940 ,2,0,0.,4.8,12.,4.8,2.,4.8,2.,4.8
1979-07-15 03:10:09.740 ,2,0,0.,4.8,8.,4.8,3.,4.8,2.,4.8
1979-07-15 03:10:14.540 ,2,0,0.,4.8,10.,4.8,1.,4.8,3.,4.8
1979-07-15 03:10:19.340 ,2,0,0.,4.8,4.,4.8,4.,4.8,6.,4.8
1979-07-15 03:10:24.140 ,1,0,0.,4.8,3.,4.8,3.,4.8,1.,4.8
1979-07-15 03:10:28.940 ,1,0,0.,4.8,7.,4.8,3.,4.8,2.,4.8
1979-07-15 03:10:33.740 ,1,0,0.,4.8,10.,4.8,3.,4.8,3.,4.8
1979-07-15 03:10:38.540 ,1,0,0.,4.8,14.,4.8,1.,4.8,2.,4.8
1979-07-15 03:10:43.340 ,1,0,0.,4.8,10.,4.8,1.,4.8,2.,4.8
1979-07-15 03:10:48.140 ,1,0,0.,4.8,13.,4.8,2.,4.8,5.,4.8
1979-07-15 03:10:52.940 ,1,0,0.,4.8,9.,4.8,3.,4.8,2.,4.8
1979-07-15 03:10:57.740 ,1,0,0.,4.8,14.,4.8,1.,4.8,1.,4.8
1979-07-15 03:11:02.540 ,1,0,0.,4.8,10.,4.8,1.,4.8,1.,4.8
1979-07-15 03:11:07.340 ,1,0,0.,4.8,4.,4.8,0.,4.8,1.,4.8
1979-07-15 03:11:12.140 ,0,0,0.,4.8,6.,4.8,1.,4.8,0.,4.8
1979-07-15 03:11:16.940 ,0,0,0.,4.8,3.,4.8,2.,4.8,3.,4.8
1979-07-15 03:11:21.740 ,0,0,0.,4.8,6.,4.8,5.,4.8,3.,4.8
1979-07-15 03:11:26.540 ,0,0,0.,4.8,5.,4.8,0.,4.8,5.,4.8
1979-07-15 03:11:31.340 ,0,0,0.,4.8,6.,4.8,2.,4.8,2.,4.8
1979-07-15 03:11:36.140 ,0,0,0.,4.8,7.,4.8,1.,4.8,1.,4.8
1979-07-15 03:11:40.940 ,0,0,0.,4.8,11.,4.8,3.,4.8,3.,4.8
1979-07-15 03:11:45.740 ,0,0,0.,4.8,5.,4.8,7.,4.8,2.,4.8
1979-07-15 03:11:50.540 ,0,0,0.,4.8,8.,4.8,2.,4.8,4.,4.8
1979-07-15 03:11:55.340 ,0,0,0.,4.8,7.,4.8,2.,4.8,3.,4.8
1979-07-15 03:12:00.140 ,0,0,0.,4.8,7.,4.8,3.,4.8,3.,4.8
1979-07-15 03:12:04.940 ,0,0,0.,4.8,9.,4.8,3.,4.8,2.,4.8
1979-07-15 03:12:09.740 ,0,0,0.,4.8,4.,4.8,1.,4.8,2.,4.8
1979-07-15 03:12:14.540 ,0,0,0.,4.8,10.,4.8,1.,4.8,7.,4.8
1979-07-15 03:12:19.340 ,0,0,0.,4.8,5.,4.8,1.,4.8,1.,4.8
1979-07-15 03:12:24.140 ,0,0,0.,4.8,3.,4.8,2.,4.8,4.,4.8
1979-07-15 03:12:28.940 ,0,0,0.,4.8,9.,4.8,1.,4.8,0.,4.8
1979-07-15 03:12:33.740 ,0,0,0.,4.8,7.,4.8,2.,4.8,2.,4.8
1979-07-15 03:12:38.540 ,0,0,0.,4.8,2.,4.8,1.,4.8,3.,4.8
1979-07-15 03:12:43.340 ,0,0,0.,4.8,4.,4.8,0.,4.8,2.,4.8
1979-07-15 03:12:48.140 ,1,0,0.,4.8,6.,4.8,1.,4.8,1.,4.8
1979-07-15 03:12:52.940 ,1,0,0.,4.8,6.,4.8,0.,4.8,3.,4.8
1979-07-15 03:12:57.740 ,1,0,0.,4.8,10.,4.8,0.,4.8,5.,4.8
1979-07-15 03:13:02.540 ,1,0,0.,4.8,8.,4.8,4.,4.8,1.,4.8
1979-07-15 03:13:07.340 ,1,0,0.,4.8,7.,4.8,4.,4.8,0.,4.8
1979-07-15 03:13:12.140 ,1,0,0.,4.8,4.,4.8,2.,4.8,2.,4.8
1979-07-15 03:13:16.940 ,1,0,0.,4.8,3.,4.8,1.,4.8,1.,4.8
1979-07-15 03:13:21.740 ,1,0,0.,4.8,12.,4.8,2.,4.8,2.,4.8
1979-07-15 03:13:26.540 ,1,0,0.,4.8,5.,4.8,1.,4.8,3.,4.8
1979-07-15 03:13:31.340 ,1,0,0.,4.8,1.,4.8,2.,4.8,4.,4.8
1979-07-15 03:13:36.140 ,2,0,0.,4.8,7.,4.8,2.,4.8,2.,4.8
1979-07-15 03:13:40.940 ,2,0,0.,4.8,4.,4.8,3.,4.8,5.,4.8
1979-07-15 03:13:45.740 ,2,0,0.,4.8,5.,4.8,5.,4.8,3.,4.8
1979-07-15 03:13:50.540 ,2,0,0.,4.8,4.,4.8,1.,4.8,2.,4.8
1979-07-15 03:13:55.340 ,2,0,0.,4.8,4.,4.8,1.,4.8,3.,4.8
1979-07-15 03:14:00.140 ,2,0,0.,4.8,5.,4.8,1.,4.8,4.,4.8
1979-07-15 03:14:04.940 ,2,0,0.,4.8,6.,4.8,0.,4.8,5.,4.8
1979-07-15 03:14:09.740 ,2,0,0.,4.8,10.,4.8,2.,4.8,3.,4.8
1979-07-15 03:14:14.540 ,2,0,0.,4.8,7.,4.8,1.,4.8,2.,4.8
1979-07-15 03:14:19.340 ,2,0,0.,4.8,9.,4.8,4.,4.8,4.,4.8
1979-07-15 03:14:24.140 ,3,0,0.,4.8,4.,4.8,2.,4.8,1.,4.8
1979-07-15 03:14:28.940 ,3,0,0.,4.8,7.,4.8,0.,4.8,1.,4.8
1979-07-15 03:14:33.740 ,3,0,0.,4.8,7.,4.8,1.,4.8,1.,4.8
1979-07-15 03:14:38.540 ,3,0,0.,4.8,8.,4.8,5.,4.8,2.,4.8
1979-07-15 03:14:43.340 ,3,0,0.,4.8,4.,4.8,1.,4.8,1.,4.8
1979-07-15 03:14:48.140 ,3,0,0.,4.8,6.,4.8,1.,4.8,4.,4.8
1979-07-15 03:14:52.940 ,3,0,0.,4.8,7.,4.8,1.,4.8,1.,4.8
1979-07-15 03:14:57.740 ,3,0,0.,4.8,3.,4.8,3.,4.8,1.,4.8
1979-07-15 03:15:02.540 ,3,0,0.,4.8,4.,4.8,3.,4.8,2.,4.8
1979-07-15 03:15:07.340 ,3,0,0.,4.8,12.,4.8,1.,4.8,3.,4.8
1979-07-15 03:15:12.140 ,4,0,0.,4.8,9.,4.8,0.,4.8,1.,4.8
1979-07-15 03:15:16.940 ,4,0,0.,4.8,3.,4.8,2.,4.8,3.,4.8
1979-07-15 03:15:21.740 ,4,0,0.,4.8,7.,4.8,5.,4.8,4.,4.8
1979-07-15 03:15:26.540 ,4,0,0.,4.8,8.,4.8,5.,4.8,2.,4.8
1979-07-15 03:15:31.340 ,4,0,0.,4.8,11.,4.8,2.,4.8,6.,4.8
1979-07-15 03:15:36.140 ,4,0,0.,4.8,10.,4.8,2.,4.8,4.,4.8
1979-07-15 03:15:40.940 ,4,0,0.,4.8,8.,4.8,2.,4.8,6.,4.8
1979-07-15 03:15:45.740 ,4,0,0.,4.8,6.,4.8,3.,4.8,3.,4.8
1979-07-15 03:15:50.540 ,4,0,0.,4.8,8.,4.8,7.,4.8,3.,4.8
1979-07-15 03:15:55.340 ,4,0,0.,4.8,9.,4.8,2.,4.8,0.,4.8
1979-07-15 03:16:00.140 ,5,0,0.,4.8,9.,4.8,1.,4.8,3.,4.8
1979-07-15 03:16:04.940 ,5,0,0.,4.8,8.,4.8,5.,4.8,2.,4.8
1979-07-15 03:16:09.740 ,5,0,0.,4.8,23.,4.8,3.,4.8,4.,4.8
1979-07-15 03:16:14.540 ,5,0,0.,4.8,28.,4.8,5.,4.8,3.,4.8
1979-07-15 03:16:19.340 ,5,0,0.,4.8,25.,4.8,5.,4.8,5.,4.8
1979-07-15 03:16:24.140 ,5,0,1.,4.8,17.,4.8,3.,4.8,3.,4.8
1979-07-15 03:16:28.940 ,5,0,0.,4.8,26.,4.8,8.,4.8,2.,4.8
1979-07-15 03:16:33.740 ,5,0,0.,4.8,33.,4.8,7.,4.8,4.,4.8
1979-07-15 03:16:38.540 ,5,0,0.,4.8,28.,4.8,6.,4.8,3.,4.8
1979-07-15 03:16:43.340 ,5,0,0.,4.8,17.,4.8,2.,4.8,1.,4.8
1979-07-15 03:16:48.140 ,6,0,0.,4.8,21.,4.8,0.,4.8,6.,4.8
1979-07-15 03:16:52.940 ,6,0,0.,4.8,28.,4.8,4.,4.8,5.,4.8
1979-07-15 03:16:57.740 ,6,0,0.,4.8,24.,4.8,3.,4.8,3.,4.8
1979-07-15 03:17:02.540 ,6,0,0.,4.8,11.,4.8,3.,4.8,0.,4.8
1979-07-15 03:17:07.340 ,6,0,0.,4.8,24.,4.8,5.,4.8,2.,4.8
1979-07-15 03:17:12.140 ,6,0,0.,4.8,15.,4.8,7.,4.8,2.,4.8
1979-07-15 03:17:16.940 ,6,0,0.,4.8,18.,4.8,2.,4.8,1.,4.8
1979-07-15 03:17:21.740 ,6,0,0.,4.8,15.,4.8,5.,4.8,2.,4.8
1979-07-15 03:17:26.540 ,6,0,0.,4.8,15.,4.8,3.,4.8,2.,4.8
1979-07-15 03:17:31.340 ,6,0,0.,4.8,18.,4.8,1.,4.8,2.,4.8
1979-07-15 03:17:36.140 ,7,0,0.,4.8,20.,4.8,2.,4.8,4.,4.8
1979-07-15 03:17:40.940 ,7,0,0.,4.8,10.,4.8,6.,4.8,1.,4.8
1979-07-15 03:17:45.740 ,7,0,0.,4.8,1.,4.8,0.,4.8,0.,4.8
1979-07-15 03:17:50.540 ,7,0,0.,4.8,1.,4.8,1.,4.8,0.,4.8
1979-07-15 03:17:55.340 ,7,0,0.,4.8,1.,4.8,0.,4.8,0.,4.8
1979-07-15 03:18:00.140 ,7,0,0.,4.8,0.,4.8,1.,4.8,0.,4.8
1979-07-15 03:18:04.940 ,7,0,0.,4.8,1.,4.8,0.,4.8,0.,4.8
1979-07-15 03:18:09.740 ,7,0,0.,4.8,0.,4.8,0.,4.8,0.,4.8
1979-07-15 03:18:14.540 ,7,0,0.,4.8,0.,4.8,0.,4.8,0.,4.8
1979-07-15 03:18:19.340 ,7,0,0.,4.8,0.,4.8,0.,4.8,0.,4.8
1979-07-15 03:18:24.140 ,7,0,0.,4.8,0.,4.8,0.,4.8,0.,4.8
1979-07-15 03:18:28.940 ,7,0,0.,4.8,0.,4.8,0.,4.8,0.,4.8
1979-07-15 03:18:33.740 ,7,0,0.,4.8,0.,4.8,1.,4.8,0.,4.8
1979-07-15 03:18:38.540 ,7,0,0.,4.8,2.,4.8,0.,4.8,0.,4.8
1979-07-15 03:18:43.340 ,7,0,0.,4.8,0.,4.8,0.,4.8,1.,4.8
1979-07-15 03:18:48.140 ,7,0,0.,4.8,1.,4.8,0.,4.8,0.,4.8
1979-07-15 03:18:52.940 ,7,0,0.,4.8,0.,4.8,0.,4.8,0.,4.8
1979-07-15 03:18:57.740 ,7,0,0.,4.8,0.,4.8,0.,4.8,0.,4.8
1979-07-15 03:19:02.540 ,7,0,0.,4.8,1.,4.8,0.,4.8,0.,4.8
1979-07-15 03:19:07.340 ,7,0,0.,4.8,2.,4.8,0.,4.8,1.,4.8
1979-07-15 03:19:12.140 ,6,0,0.,4.8,0.,4.8,1.,4.8,0.,4.8
1979-07-15 03:19:16.940 ,6,0,0.,4.8,0.,4.8,0.,4.8,0.,4.8
1979-07-15 03:19:21.740 ,6,0,0.,4.8,35.,4.8,4.,4.8,1.,4.8
1979-07-15 03:19:26.540 ,6,0,0.,4.8,34.,4.8,5.,4.8,3.,4.8
1979-07-15 03:19:31.340 ,6,0,0.,4.8,30.,4.8,6.,4.8,7.,4.8
1979-07-15 03:19:36.140 ,6,0,0.,4.8,38.,4.8,5.,4.8,5.,4.8
1979-07-15 03:19:40.940 ,6,0,0.,4.8,30.,4.8,7.,4.8,3.,4.8
1979-07-15 03:19:45.740 ,6,0,0.,4.8,32.,4.8,7.,4.8,6.,4.8
1979-07-15 03:19:50.540 ,6,0,0.,4.8,49.,4.8,8.,4.8,4.,4.8
1979-07-15 03:19:55.340 ,6,0,0.,4.8,42.,4.8,7.,4.8,5.,4.8
1979-07-15 03:20:00.140 ,5,0,0.,4.8,44.,4.8,5.,4.8,7.,4.8
1979-07-15 03:20:04.940 ,5,0,0.,4.8,34.,4.8,4.,4.8,0.,4.8
1979-07-15 03:20:09.740 ,5,0,0.,4.8,52.,4.8,4.,4.8,3.,4.8
1979-07-15 03:20:14.540 ,5,0,0.,4.8,56.,4.8,4.,4.8,1.,4.8
1979-07-15 03:20:19.340 ,5,0,0.,4.8,63.,4.8,11.,4.8,4.,4.8
1979-07-15 03:20:24.140 ,5,0,0.,4.8,59.,4.8,4.,4.8,3.,4.8
1979-07-15 03:20:28.940 ,5,0,0.,4.8,49.,4.8,6.,4.8,3.,4.8
1979-07-15 03:20:33.740 ,5,0,0.,4.8,59.,4.8,7.,4.8,4.,4.8
1979-07-15 03:20:38.540 ,5,0,0.,4.8,44.,4.8,8.,4.8,6.,4.8
1979-07-15 03:20:43.340 ,5,0,0.,4.8,62.,4.8,11.,4.8,13.,4.8
1979-07-15 03:20:48.140 ,4,0,0.,4.8,48.,4.8,6.,4.8,8.,4.8
1979-07-15 03:20:52.940 ,4,0,0.,4.8,62.,4.8,9.,4.8,7.,4.8
1979-07-15 03:20:57.740 ,4,0,0.,4.8,30.,4.8,11.,4.8,2.,4.8
1979-07-15 03:21:02.540 ,4,0,0.,4.8,46.,4.8,7.,4.8,2.,4.8
1979-07-15 03:21:07.340 ,4,0,0.,4.8,49.,4.8,12.,4.8,7.,4.8
1979-07-15 03:21:12.140 ,4,0,0.,4.8,53.,4.8,9.,4.8,2.,4.8
1979-07-15 03:21:16.940 ,4,0,0.,4.8,63.,4.8,7.,4.8,6.,4.8
1979-07-15 03:21:21.740 ,4,0,0.,4.8,66.,4.8,12.,4.8,1.,4.8
1979-07-15 03:21:26.540 ,4,0,0.,4.8,53.,4.8,4.,4.8,6.,4.8
1979-07-15 03:21:31.340 ,4,0,0.,4.8,51.,4.8,13.,4.8,4.,4.8
1979-07-15 03:21:36.140 ,3,0,0.,4.8,63.,4.8,8.,4.8,0.,4.8
1979-07-15 03:21:40.940 ,3,0,0.,4.8,47.,4.8,8.,4.8,1.,4.8
1979-07-15 03:21:45.740 ,3,0,0.,4.8,27.,4.8,6.,4.8,1.,4.8
1979-07-15 03:21:50.540 ,3,0,0.,4.8,33.,4.8,3.,4.8,4.,4.8
1979-07-15 03:21:55.340 ,3,0,0.,4.8,30.,4.8,7.,4.8,1.,4.8
1979-07-15 03:22:00.140 ,3,0,0.,4.8,27.,4.8,6.,4.8,4.,4.8
1979-07-15 03:22:04.940 ,3,0,0.,4.8,45.,4.8,4.,4.8,5.,4.8
1979-07-15 03:22:09.740 ,3,0,0.,4.8,38.,4.8,5.,4.8,3.,4.8
1979-07-15 03:22:14.540 ,3,0,0.,4.8,44.,4.8,0.,4.8,5.,4.8
1979-07-15 03:22:19.340 ,3,0,0.,4.8,45.,4.8,2.,4.8,1.,4.8
1979-07-15 03:22:24.140 ,2,0,0.,4.8,47.,4.8,4.,4.8,6.,4.8
1979-07-15 03:22:28.940 ,2,0,0.,4.8,39.,4.8,9.,4.8,4.,4.8
1979-07-15 03:22:33.740 ,2,0,0.,4.8,33.,4.8,6.,4.8,5.,4.8
1979-07-15 03:22:38.540 ,2,0,0.,4.8,32.,4.8,2.,4.8,5.,4.8
1979-07-15 03:22:43.340 ,2,0,0.,4.8,31.,4.8,5.,4.8,2.,4.8
1979-07-15 03:22:48.140 ,2,0,0.,4.8,26.,4.8,2.,4.8,4.,4.8
1979-07-15 03:22:52.940 ,2,0,0.,4.8,30.,4.8,8.,4.8,2.,4.8
1979-07-15 03:22:57.740 ,2,0,0.,4.8,27.,4.8,6.,4.8,1.,4.8
1979-07-15 03:23:02.540 ,2,0,0.,4.8,33.,4.8,1.,4.8,1.,4.8
1979-07-15 03:23:07.340 ,2,0,0.,4.8,40.,4.8,5.,4.8,4.,4.8
1979-07-15 03:23:12.140 ,1,0,0.,4.8,27.,4.8,6.,4.8,3.,4.8
1979-07-15 03:23:16.940 ,1,0,0.,4.8,36.,4.8,6.,4.8,0.,4.8
1979-07-15 03:23:21.740 ,1,0,0.,4.8,33.,4.8,3.,4.8,5.,4.8
1979-07-15 03:23:26.540 ,1,0,0.,4.8,27.,4.8,1.,4.8,5.,4.8
1979-07-15 03:23:31.340 ,1,0,0.,4.8,22.,4.8,2.,4.8,4.,4.8
1979-07-15 03:23:36.140 ,1,0,0.,4.8,18.,4.8,4.,4.8,1.,4.8
1979-07-15 03:23:40.940 ,1,0,0.,4.8,24.,4.8,3.,4.8,2.,4.8
1979-07-15 03:23:45.740 ,1,0,0.,4.8,22.,4.8,5.,4.8,8.,4.8
1979-07-15 03:23:50.540 ,1,0,0.,4.8,30.,4.8,4.,4.8,2.,4.8
1979-07-15 03:23:55.340 ,1,0,0.,4.8,21.,4.8,5.,4.8,1.,4.8
1979-07-15 03:24:00.140 ,0,0,0.,4.8,21.,4.8,3.,4.8,5.,4.8
1979-07-15 03:24:04.940 ,0,0,0.,4.8,16.,4.8,6.,4.8,5.,4.8
1979-07-15 03:24:09.740 ,0,0,0.,4.8,21.,4.8,1.,4.8,2.,4.8
1979-07-15 03:24:14.540 ,0,0,0.,4.8,18.,4.8,4.,4.8,2.,4.8
1979-07-15 03:24:19.340 ,0,0,0.,4.8,22.,4.8,7.,4.8,6.,4.8
1979-07-15 03:24:24.140 ,0,0,0.,4.8,18.,4.8,4.,4.8,1.,4.8
1979-07-15 03:24:28.940 ,0,0,0.,4.8,21.,4.8,4.,4.8,4.,4.8
1979-07-15 03:24:33.740 ,0,0,0.,4.8,29.,4.8,8.,4.8,5.,4.8
1979-07-15 03:24:38.540 ,0,0,0.,4.8,22.,4.8,4.,4.8,2.,4.8
1979-07-15 03:24:43.340 ,0,0,0.,4.8,28.,4.8,2.,4.8,0.,4.8
1979-07-15 03:24:48.140 ,0,0,0.,4.8,25.,4.8,8.,4.8,3.,4.8
1979-07-15 03:24:52.940 ,0,0,0.,4.8,20.,4.8,7.,4.8,4.,4.8
1979-07-15 03:24:57.740 ,0,0,0.,4.8,25.,4.8,8.,4.8,5.,4.8
1979-07-15 03:25:02.540 ,0,0,0.,4.8,15.,4.8,6.,4.8,4.,4.8
1979-07-15 03:25:07.340 ,0,0,0.,4.8,16.,4.8,1.,4.8,3.,4.8
1979-07-15 03:25:12.140 ,0,0,0.,4.8,12.,4.8,2.,4.8,4.,4.8
1979-07-15 03:25:16.940 ,0,0,0.,4.8,19.,4.8,4.,4.8,3.,4.8
1979-07-15 03:25:21.740 ,0,0,0.,4.8,23.,4.8,5.,4.8,3.,4.8
1979-07-15 03:25:26.540 ,0,0,0.,4.8,17.,4.8,5.,4.8,1.,4.8
1979-07-15 03:25:31.340 ,0,0,0.,4.8,25.,4.8,4.,4.8,2.,4.8
1979-07-15 03:25:36.140 ,1,0,0.,4.8,16.,4.8,3.,4.8,4.,4.8
1979-07-15 03:25:40.940 ,1,0,0.,4.8,22.,4.8,3.,4.8,2.,4.8
1979-07-15 03:25:45.740 ,1,0,0.,4.8,20.,4.8,5.,4.8,6.,4.8
1979-07-15 03:25:50.540 ,1,0,0.,4.8,26.,4.8,5.,4.8,5.,4.8
1979-07-15 03:25:55.340 ,1,0,0.,4.8,27.,4.8,6.,4.8,3.,4.8
1979-07-15 03:26:00.140 ,1,0,0.,4.8,21.,4.8,5.,4.8,4.,4.8
1979-07-15 03:26:04.940 ,1,0,0.,4.8,30.,4.8,5.,4.8,1.,4.8
1979-07-15 03:26:09.740 ,1,0,0.,4.8,19.,4.8,5.,4.8,5.,4.8
1979-07-15 03:26:14.540 ,1,0,0.,4.8,29.,4.8,1.,4.8,10.,4.8
1979-07-15 03:26:19.340 ,1,0,0.,4.8,29.,4.8,5.,4.8,5.,4.8
1979-07-15 03:26:24.140 ,2,0,0.,4.8,26.,4.8,10.,4.8,5.,4.8
1979-07-15 03:26:28.940 ,2,0,0.,4.8,21.,4.8,5.,4.8,3.,4.8
1979-07-15 03:26:33.740 ,2,0,0.,4.8,25.,4.8,6.,4.8,6.,4.8
1979-07-15 03:26:38.540 ,2,0,0.,4.8,28.,4.8,5.,4.8,6.,4.8
1979-07-15 03:26:43.340 ,2,0,0.,4.8,27.,4.8,7.,4.8,6.,4.8
1979-07-15 03:26:48.140 ,2,0,0.,4.8,34.,4.8,5.,4.8,3.,4.8
1979-07-15 03:26:52.940 ,2,0,0.,4.8,26.,4.8,2.,4.8,1.,4.8
1979-07-15 03:26:57.740 ,2,0,1.,4.8,26.,4.8,3.,4.8,4.,4.8
1979-07-15 03:27:02.540 ,2,0,0.,4.8,34.,4.8,3.,4.8,4.,4.8
1979-07-15 03:27:07.340 ,2,0,0.,4.8,31.,4.8,4.,4.8,2.,4.8
1979-07-15 03:27:12.140 ,3,0,0.,4.8,25.,4.8,7.,4.8,6.,4.8
1979-07-15 03:27:16.940 ,3,0,0.,4.8,16.,4.8,7.,4.8,2.,4.8
1979-07-15 03:27:21.740 ,3,0,0.,4.8,60.,4.8,7.,4.8,8.,4.8
1979-07-15 03:27:26.540 ,3,0,0.,4.8,42.,4.8,7.,4.8,2.,4.8
1979-07-15 03:27:31.340 ,3,0,0.,4.8,41.,4.8,7.,4.8,6.,4.8
1979-07-15 03:27:36.140 ,3,0,0.,4.8,42.,4.8,7.,4.8,3.,4.8
1979-07-15 03:27:40.940 ,3,0,0.,4.8,44.,4.8,2.,4.8,7.,4.8
1979-07-15 03:27:45.740 ,3,0,1.,4.8,44.,4.8,6.,4.8,7.,4.8
1979-07-15 03:27:50.540 ,3,0,0.,4.8,45.,4.8,4.,4.8,7.,4.8
1979-07-15 03:27:55.340 ,3,0,0.,4.8,34.,4.8,5.,4.8,7.,4.8
1979-07-15 03:28:00.140 ,4,0,0.,4.8,41.,4.8,12.,4.8,0.,4.8
1979-07-15 03:28:04.940 ,4,0,0.,4.8,46.,4.8,5.,4.8,4.,4.8
1979-07-15 03:28:09.740 ,4,0,0.,4.8,52.,4.8,8.,4.8,7.,4.8
1979-07-15 03:28:14.540 ,4,0,0.,4.8,66.,4.8,4.,4.8,6.,4.8
1979-07-15 03:28:19.340 ,4,0,0.,4.8,68.,4.8,7.,4.8,4.,4.8
1979-07-15 03:28:24.140 ,4,0,0.,4.8,74.,4.8,12.,4.8,7.,4.8
1979-07-15 03:28:28.940 ,4,0,0.,4.8,56.,4.8,10.,4.8,7.,4.8
1979-07-15 03:28:33.740 ,4,0,0.,4.8,56.,4.8,7.,4.8,5.,4.8
1979-07-15 03:28:38.540 ,4,0,0.,4.8,54.,4.8,9.,4.8,3.,4.8
1979-07-15 03:28:43.340 ,4,0,0.,4.8,59.,4.8,7.,4.8,4.,4.8
1979-07-15 03:28:48.140 ,5,0,0.,4.8,70.,4.8,10.,4.8,4.,4.8
1979-07-15 03:28:52.940 ,5,0,0.,4.8,58.,4.8,8.,4.8,9.,4.8
1979-07-15 03:28:57.740 ,5,0,0.,4.8,62.,4.8,6.,4.8,6.,4.8
1979-07-15 03:29:02.540 ,5,0,0.,4.8,78.,4.8,13.,4.8,3.,4.8
1979-07-15 03:29:07.340 ,5,0,0.,4.8,64.,4.8,15.,4.8,6.,4.8
1979-07-15 03:29:12.140 ,5,0,0.,4.8,76.,4.8,7.,4.8,3.,4.8
1979-07-15 03:29:16.940 ,5,0,0.,4.8,55.,4.8,8.,4.8,8.,4.8
1979-07-15 03:29:21.740 ,5,0,0.,4.8,68.,4.8,13.,4.8,10.,4.8
1979-07-15 03:29:26.540 ,5,0,0.,4.8,54.,4.8,10.,4.8,6.,4.8
1979-07-15 03:29:31.340 ,5,0,0.,4.8,53.,4.8,7.,4.8,8.,4.8
1979-07-15 03:29:36.140 ,6,0,0.,4.8,76.,4.8,16.,4.8,3.,4.8
1979-07-15 03:29:40.940 ,6,0,0.,4.8,70.,4.8,5.,4.8,6.,4.8
1979-07-15 03:29:45.740 ,6,0,0.,4.8,59.,4.8,7.,4.8,2.,4.8
1979-07-15 03:29:50.540 ,6,0,0.,4.8,45.,4.8,7.,4.8,3.,4.8
1979-07-15 03:29:55.340 ,6,0,0.,4.8,32.,4.8,2.,4.8,4.,4.8
1979-07-15 03:30:00.140 ,6,0,0.,4.8,47.,4.8,8.,4.8,6.,4.8
1979-07-15 03:30:04.940 ,6,0,0.,4.8,49.,4.8,3.,4.8,3.,4.8
1979-07-15 03:30:09.740 ,6,0,0.,4.8,40.,4.8,3.,4.8,7.,4.8
1979-07-15 03:30:14.540 ,6,0,0.,4.8,52.,4.8,3.,4.8,3.,4.8
1979-07-15 03:30:19.340 ,6,0,0.,4.8,51.,4.8,7.,4.8,5.,4.8
1979-07-15 03:30:24.140 ,7,0,0.,4.8,48.,4.8,5.,4.8,4.,4.8
1979-07-15 03:30:28.940 ,7,0,0.,4.8,49.,4.8,5.,4.8,5.,4.8
1979-07-15 03:30:33.740 ,7,0,0.,4.8,0.,4.8,0.,4.8,0.,4.8
1979-07-15 03:30:38.540 ,7,0,0.,4.8,0.,4.8,0.,4.8,1.,4.8
1979-07-15 03:30:43.340 ,7,0,0.,4.8,1.,4.8,0.,4.8,0.,4.8
1979-07-15 03:30:48.140 ,7,0,0.,4.8,1.,4.8,0.,4.8,0.,4.8
1979-07-15 03:30:52.940 ,7,0,0.,4.8,2.,4.8,0.,4.8,0.,4.8
1979-07-15 03:30:57.740 ,7,0,0.,4.8,0.,4.8,0.,4.8,0.,4.8
1979-07-15 03:31:02.540 ,7,0,0.,4.8,1.,4.8,0.,4.8,0.,4.8
1979-07-15 03:31:07.340 ,7,0,0.,4.8,0.,4.8,0.,4.8,0.,4.8
1979-07-15 03:31:12.140 ,3,1,0.,4.8,15.,4.8,1.,4.8,2.,4.8
1979-07-15 03:31:16.940 ,3,1,0.,4.8,47.,4.8,4.,4.8,7.,4.8
1979-07-15 03:31:21.740 ,3,1,0.,4.8,55.,4.8,11.,4.8,7.,4.8
1979-07-15 03:31:26.540 ,3,1,0.,4.8,68.,4.8,9.,4.8,5.,4.8
1979-07-15 03:31:31.340 ,3,1,0.,4.8,72.,4.8,5.,4.8,6.,4.8
1979-07-15 03:31:36.140 ,0,1,0.,4.8,37.,4.8,2.,4.8,5.,4.8
1979-07-15 03:31:40.940 ,0,1,0.,4.8,24.,4.8,6.,4.8,4.,4.8
1979-07-15 03:31:45.740 ,0,1,0.,4.8,12.,4.8,6.,4.8,1.,4.8
1979-07-15 03:31:50.540 ,0,1,0.,4.8,18.,4.8,3.,4.8,2.,4.8
1979-07-15 03:31:55.340 ,0,1,0.,4.8,14.,4.8,0.,4.8,3.,4.8
1979-07-15 03:32:00.140 ,4,1,0.,4.8,16.,4.8,0.,4.8,5.,4.8
1979-07-15 03:32:04.940 ,4,1,0.,4.8,12.,4.8,1.,4.8,1.,4.8
1979-07-15 03:32:09.740 ,4,1,0.,4.8,27.,4.8,5.,4.8,0.,4.8
1979-07-15 03:32:14.540 ,4,1,0.,4.8,29.,4.8,5.,4.8,2.,4.8
1979-07-15 03:32:19.340 ,4,1,0.,4.8,42.,4.8,8.,4.8,2.,4.8
1979-07-15 03:32:24.140 ,7,1,0.,4.8,55.,4.8,9.,4.8,4.,4.8
1979-07-15 03:32:28.940 ,7,1,0.,4.8,57.,4.8,21.,4.8,3.,4.8
1979-07-15 03:32:33.740 ,7,1,0.,4.8,52.,4.8,4.,4.8,3.,4.8
1979-07-15 03:32:38.540 ,7,1,0.,4.8,5.,4.8,0.,4.8,1.,4.8
1979-07-15 03:32:43.340 ,7,1,0.,4.8,2.,4.8,1.,4.8,0.,4.8
1979-07-15 03:32:48.140 ,3,1,0.,4.8,8.,4.8,3.,4.8,2.,4.8
1979-07-15 03:32:52.940 ,3,1,0.,4.8,53.,4.8,7.,4.8,2.,4.8